Wind_Speed
11 11 11 10 10 10 9 8 7 7 7 7 7 6 5 5 5 6 6 7 8 9 10 12 14 15 16 18 19 19 20 22 22 22 22 23 23 22
11 10 10 10 10 10 9 9 9 8 8 8 8 8 7 7 7 7 7 8 9 10 11 12 13 15 16 17 19 20 22 23 24 24 24 25 25 25
11 10 10 10 10 10 10 10 10 10 10 10 9 9 9 9 9 9 10 11 12 13 14 14 15 16 18 19 20 21 22 23 25 25 26 26 26 27
11 11 11 11 11 11 11 11 12 12 11 11 11 11 11 11 11 12 12 13 14 15 16 17 18 18 19 20 21 22 23 24 25 26 27 28 28 29
12 12 12 12 13 13 13 13 13 13 13 13 13 13 13 13 13 14 15 16 16 17 18 19 20 20 21 22 23 24 25 26 27 28 29 30 30 31
13 13 13 14 14 14 14 15 15 16 16 16 16 16 16 17 17 17 17 18 19 21 21 22 23 23 24 25 25 26 27 28 29 30 30 31 32 32
14 15 15 16 16 16 16 17 18 18 18 18 19 19 19 19 20 20 21 22 23 24 25 25 26 26 27 28 28 28 29 30 30 31 32 33 33 34
16 16 17 18 18 19 19 20 20 20 21 21 22 22 22 23 23 24 25 26 26 27 28 29 29 29 29 30 31 31 31 32 33 33 34 35 36 36
18 18 19 20 20 21 21 22 23 23 24 24 24 24 25 26 27 28 29 30 31 31 32 33 33 33 33 33 34 34 34 35 35 36 36 37 38 38
20 20 21 22 23 23 24 25 26 26 27 27 28 28 29 30 30 32 33 34 34 35 36 37 36 37 37 37 38 38 38 38 39 39 39 40 41 41
22 23 23 24 25 26 26 27 28 29 30 30 31 32 33 33 35 36 37 38 38 38 40 41 41 41 41 41 42 43 43 43 43 43 43 44 44 45
24 25 26 27 28 28 29 29 30 32 33 33 34 36 36 37 38 40 40 41 41 41 43 44 45 45 44 44 46 47 47 48 48 48 48 48 48 48
27 28 28 29 30 31 32 33 34 35 36 37 37 38 39 40 42 43 44 45 46 46 47 48 48 49 49 48 49 50 51 52 52 52 52 52 52 52
29 30 31 32 33 34 35 36 37 38 39 40 41 42 43 44 45 46 47 49 49 50 50 51 52 52 53 53 53 54 55 56 57 56 56 56 56 56
33 33 34 35 36 37 39 40 41 42 43 44 45 46 46 47 48 49 50 51 51 52 53 54 54 55 56 57 58 58 59 59 60 60 59 59 59 59
36 36 38 39 40 41 42 43 44 46 47 48 48 49 49 50 50 51 51 52 53 53 54 55 56 57 58 59 60 60 61 61 61 62 62 61 61 61
39 40 41 42 43 44 45 46 47 48 49 50 50 51 51 52 53 54 54 55 55 55 55 56 57 58 59 59 60 60 61 61 61 62 62 62 62 63
42 43 44 45 45 46 47 49 50 50 51 51 52 53 53 54 55 55 56 57 56 56 56 57 58 58 58 58 60 60 60 60 60 60 61 62 61 61
45 46 46 47 48 49 50 51 51 52 52 53 53 54 54 55 56 56 57 58 58 57 57 58 59 59 60 59 57 59 60 59 58 58 58 58 58 57
47 48 48 49 50 51 51 52 52 52 53 54 55 55 56 56 57 58 59 59 59 59 59 59 60 60 61 61 58 55 56 56 56 55 55 55 55 54
49 49 50 51 52 52 53 53 53 53 54 55 56 57 57 58 59 60 61 61 61 61 61 60 60 60 60 58 56 53 51 52 52 52 52 52 51 51
50 51 52 53 53 54 54 54 55 55 56 57 58 59 59 60 61 62 63 63 63 62 61 60 59 58 57 55 52 50 48 47 47 47 47 48 48 48
52 53 54 54 54 54 55 56 57 57 58 59 60 61 61 62 63 64 64 63 63 61 60 58 56 54 53 51 49 47 46 44 43 43 43 44 45 45
Wind_Direction
34 34 35 33 31 27 25 22 18 11 3 356 350 339 324 312 305 296 282 275 271 273 271 266 263 261 257 254 252 250 248 246 246 246 245 244 243 243
25 23 22 20 18 14 12 9 3 359 353 344 339 335 325 312 301 292 285 281 277 275 274 274 271 267 264 260 257 254 253 251 250 251 250 249 248 246
15 13 10 6 3 359 355 352 349 345 340 335 330 325 320 310 302 296 290 285 281 280 278 278 277 274 269 265 264 262 259 256 253 252 253 251 251 251
8 6 2 358 354 348 344 341 338 335 331 328 323 317 313 309 304 297 292 290 288 286 283 281 279 279 275 271 270 268 265 261 257 254 254 254 254 254
359 357 354 351 346 341 337 334 331 328 325 322 318 313 308 306 302 298 294 292 290 288 286 284 281 280 278 275 272 269 267 264 262 259 256 256 257 257
347 345 343 340 339 336 333 330 327 324 320 318 315 311 305 301 299 296 295 291 289 287 285 283 281 280 278 277 274 271 268 267 265 263 261 259 259 259
336 335 334 332 331 329 325 323 323 320 318 315 312 310 306 302 298 295 294 293 291 288 285 283 281 279 277 275 274 272 270 268 266 264 263 261 261 261
330 328 328 327 326 323 320 319 318 317 314 312 310 308 306 303 299 297 295 292 290 288 287 285 282 280 278 276 274 272 271 269 268 266 265 263 262 261
325 324 323 322 321 320 318 317 316 314 312 311 308 306 304 302 299 298 297 294 292 289 287 284 282 280 278 276 274 273 271 270 269 268 267 265 264 263
321 319 318 318 317 316 315 314 314 312 311 308 306 305 304 302 300 298 297 295 294 292 289 286 283 281 278 276 274 273 271 271 270 269 268 266 266 265
317 316 315 314 314 313 312 312 312 312 310 308 306 305 304 302 301 299 297 295 292 291 289 288 285 282 279 277 275 273 271 270 270 270 269 268 267 266
313 313 312 312 312 311 310 311 311 311 309 307 305 304 303 301 300 299 297 296 293 291 290 289 287 284 280 278 276 274 272 271 270 270 269 268 267 266
311 311 311 311 311 310 309 309 309 309 308 306 305 303 301 300 299 298 297 296 294 292 291 290 287 284 281 278 276 274 272 271 270 269 269 268 267 267
310 309 309 310 310 310 309 308 308 307 307 306 305 302 301 299 298 298 297 296 294 292 291 290 287 285 282 280 278 276 273 271 270 269 268 268 267 267
308 308 308 308 308 308 308 307 306 306 306 305 303 302 301 300 298 298 297 295 294 293 291 290 288 286 284 282 280 277 275 272 270 268 268 267 267 266
306 307 307 307 307 307 307 307 306 306 306 305 303 302 301 300 299 299 298 296 295 293 291 290 289 287 285 284 282 279 277 274 271 270 268 267 267 266
305 305 306 306 306 306 306 306 306 305 305 305 304 303 301 301 300 299 299 299 297 295 292 291 290 289 288 287 285 282 279 276 274 272 270 269 268 267
305 305 305 305 305 305 305 306 305 305 305 305 304 304 303 302 302 301 301 300 299 297 295 293 292 290 289 289 287 285 282 279 276 274 272 270 269 268
305 305 305 305 305 305 305 306 306 305 305 305 305 305 305 304 304 303 303 301 300 298 297 296 294 292 291 290 287 285 283 279 277 275 273 271 270 268
304 305 305 305 305 305 306 306 306 306 306 306 306 306 305 305 305 304 303 303 301 300 298 297 296 294 293 292 289 286 283 281 278 275 273 271 270 268
304 304 305 305 305 305 305 305 306 306 306 306 306 306 305 305 305 305 304 303 302 301 299 297 296 294 294 292 290 287 283 281 279 276 274 272 270 267
303 304 305 305 305 305 305 305 305 306 306 306 307 306 306 306 306 306 305 304 302 301 299 297 296 294 294 293 291 287 283 280 279 277 274 273 271 268
303 304 305 305 305 305 305 305 305 306 306 307 307 307 306 306 306 306 306 305 303 302 300 298 296 294 294 293 292 289 286 282 279 276 274 273 270 269
Height
5871 5870 5869 5869 5868 5868 5867 5866 5866 5865 5865 5864 5864 5863 5863 5864 5864 5865 5866 5866 5867 5868 5869 5870 5871 5872 5874 5875 5876 5877 5879 5880 5882 5883 5885 5887 5888 5890
5872 5871 5871 5870 5869 5869 5868 5867 5866 5866 5865 5864 5863 5862 5862 5862 5862 5863 5863 5864 5865 5866 5866 5867 5868 5869 5870 5871 5872 5872 5873 5875 5876 5878 5880 5881 5883 5884
5874 5872 5871 5871 5870 5869 5868 5867 5865 5865 5864 5863 5861 5860 5860 5860 5860 5861 5861 5862 5862 5863 5863 5864 5864 5864 5865 5866 5866 5867 5868 5869 5870 5872 5873 5875 5876 5878
5874 5873 5872 5870 5869 5868 5867 5865 5864 5863 5862 5861 5859 5858 5858 5857 5857 5858 5858 5858 5859 5859 5859 5859 5859 5860 5860 5860 5861 5861 5862 5863 5864 5865 5866 5868 5869 5871
5874 5873 5871 5870 5869 5867 5865 5864 5862 5860 5859 5858 5857 5856 5855 5854 5854 5854 5854 5854 5854 5854 5854 5854 5854 5854 5854 5854 5854 5854 5855 5856 5857 5857 5858 5860 5861 5862
5874 5872 5871 5869 5867 5865 5863 5861 5859 5858 5856 5855 5853 5852 5851 5850 5849 5849 5849 5849 5848 5848 5848 5848 5847 5847 5847 5847 5847 5847 5847 5848 5848 5849 5850 5851 5852 5853
5872 5871 5869 5867 5865 5863 5860 5858 5856 5854 5852 5851 5849 5847 5846 5845 5844 5843 5843 5842 5842 5841 5840 5840 5839 5839 5839 5838 5838 5838 5838 5839 5839 5840 5841 5841 5842 5844
5870 5868 5866 5864 5862 5859 5857 5855 5852 5850 5848 5846 5844 5842 5840 5839 5838 5836 5835 5834 5834 5833 5831 5831 5830 5830 5829 5829 5829 5829 5829 5829 5829 5830 5830 5831 5832 5833
5867 5865 5863 5861 5859 5856 5853 5850 5848 5845 5843 5840 5838 5836 5834 5833 5831 5829 5827 5825 5823 5822 5820 5820 5819 5818 5818 5818 5818 5818 5818 5818 5818 5818 5819 5819 5820 5821
5864 5862 5859 5857 5854 5852 5849 5846 5843 5840 5837 5834 5832 5829 5827 5824 5822 5819 5817 5814 5812 5809 5807 5806 5806 5805 5805 5805 5805 5805 5805 5805 5805 5806 5806 5806 5807 5808
5859 5857 5854 5852 5849 5846 5843 5840 5837 5834 5830 5827 5824 5821 5818 5815 5812 5809 5805 5803 5801 5798 5795 5793 5792 5791 5791 5791 5790 5790 5790 5790 5791 5791 5791 5792 5792 5793
5854 5851 5848 5845 5842 5839 5837 5834 5830 5827 5823 5819 5816 5812 5808 5805 5801 5797 5793 5790 5788 5786 5782 5779 5777 5775 5776 5776 5774 5773 5773 5774 5774 5774 5775 5775 5776 5776
5848 5845 5842 5838 5835 5832 5829 5826 5822 5818 5814 5810 5807 5803 5798 5794 5790 5785 5781 5777 5774 5771 5767 5764 5761 5759 5757 5758 5758 5756 5755 5755 5755 5756 5756 5757 5757 5758
5840 5837 5834 5831 5828 5824 5820 5817 5813 5809 5805 5800 5796 5791 5787 5782 5778 5773 5768 5763 5758 5755 5751 5747 5744 5741 5739 5739 5739 5738 5736 5735 5735 5735 5736 5737 5738 5738
5832 5829 5826 5822 5819 5815 5811 5806 5802 5798 5793 5789 5784 5779 5774 5769 5764 5758 5753 5748 5743 5738 5733 5729 5725 5722 5719 5717 5716 5716 5715 5714 5713 5713 5714 5715 5716 5717
5824 5820 5817 5813 5809 5804 5800 5795 5790 5785 5780 5775 5770 5765 5759 5754 5749 5743 5737 5732 5727 5723 5717 5711 5707 5703 5700 5697 5694 5692 5691 5690 5690 5690 5690 5692 5694 5694
5814 5810 5806 5802 5798 5793 5788 5783 5778 5772 5767 5761 5756 5750 5745 5739 5733 5727 5720 5715 5709 5705 5700 5695 5689 5684 5679 5675 5672 5670 5667 5667 5666 5666 5666 5668 5671 5671
5803 5799 5795 5790 5785 5780 5775 5770 5764 5758 5752 5746 5740 5735 5729 5723 5717 5710 5704 5697 5692 5686 5681 5676 5670 5665 5662 5658 5652 5647 5645 5643 5643 5642 5641 5643 5646 5648
5791 5787 5782 5777 5772 5767 5761 5755 5750 5743 5737 5731 5725 5719 5713 5707 5700 5694 5688 5681 5675 5669 5663 5656 5650 5643 5639 5638 5636 5628 5623 5621 5620 5620 5620 5619 5621 5624
5778 5773 5769 5764 5758 5753 5747 5741 5735 5729 5722 5716 5710 5703 5697 5691 5684 5677 5670 5663 5657 5651 5646 5639 5631 5624 5618 5613 5612 5611 5605 5600 5598 5598 5599 5599 5600 5602
5765 5760 5755 5750 5744 5738 5732 5726 5720 5714 5707 5701 5694 5688 5681 5674 5667 5660 5653 5646 5639 5632 5626 5621 5613 5606 5598 5593 5591 5591 5588 5583 5579 5578 5578 5579 5580 5582
5751 5746 5741 5735 5729 5723 5717 5711 5705 5698 5692 5685 5679 5672 5665 5657 5650 5643 5635 5628 5621 5613 5607 5601 5595 5588 5582 5576 5572 5571 5570 5567 5564 5561 5560 5560 5560 5563
5737 5732 5726 5720 5714 5708 5702 5695 5689 5682 5676 5669 5662 5655 5648 5640 5633 5625 5617 5609 5602 5595 5588 5582 5576 5571 5565 5560 5556 5554 5552 5550 5548 5547 5547 5546 5545 5545